Home   Weather   Fürstenwalde/Spree   Past weeks

Flag for Germany Past Weather in Fürstenwalde/Spree, Brandenburg, Germany — Yesterday and Last 2 Weeks

Now
57 °F

Sunny.


Feels Like: 57 °F
Forecast: 52 / 70 °F
Wind: 3 mph from North

Location: Berlin-Schoenefeld

Current Time: Sep 27, 2016 at 10:49:06 AM

Latest Report: Sep 27, 2016 at 10:20 AM


Visibility: 10 mi

Pressure: 30.30 "Hg

Humidity: 67%

Dew Point: 46 °F

Location of Fürstenwalde/SpreeLocation

Past Weather in Fürstenwalde/Spree — Graph

°F

Fürstenwalde/Spree Temperature Yesterday

Maximum temperature yesterday: 70 °F (at 3:20 PM)
Minimum temperature yesterday: 45 °F (at 6:50 AM)
Average temperature yesterday: 56 °F

High & Low Weather Summary for the Past Weeks

 TemperatureHumidityPressure
High88 °F (Sep 12, 2:20 PM)100% (Sep 24, 4:50 AM)30.30 "Hg (Sep 24, 4:50 AM)
Low43 °F (Sep 22, 3:50 AM)24% (Sep 13, 3:20 PM)29.83 "Hg (Sep 16, 5:20 PM)
Average62 °F63%30.08 "Hg
* Reported Sep 12 9:20 AM — Sep 27 9:20 AM, Fürstenwalde/Spree, Weather by CustomWeather, © 2016

Note: Actual official high and low records may vary slightly from our data, if they occured in-between our weather recording intervals... More about our weather records

Advertising

Fürstenwalde/Spree Weather History for the Previous 24 Hours

Scroll right to see more
 ConditionsComfort  
Time TempWeatherWind HumidityBarometerVisibility
9:20 AM
Tue, Sep 27
52 °FPassing clouds.7 mph82%30.27 "HgN/A
8:50 AM50 °FSunny.5 mph88%30.27 "Hg10 mi
8:20 AM48 °FSunny.5 mph87%30.27 "Hg10 mi
7:50 AM46 °FSunny.5 mph87%30.27 "Hg10 mi
7:20 AM45 °FSunny.2 mph93%30.27 "Hg10 mi
6:50 AM45 °FClear.5 mph87%30.24 "Hg10 mi
6:20 AM45 °FClear.6 mph93%30.24 "Hg10 mi
5:50 AM45 °FClear.5 mph93%30.24 "Hg10 mi
5:20 AM45 °FClear.3 mph87%30.24 "Hg10 mi
4:50 AM45 °FClear.2 mph87%30.24 "Hg10 mi
4:20 AM45 °FClear.3 mph93%30.24 "Hg10 mi
3:50 AM45 °FClear.3 mph87%30.24 "Hg10 mi
3:20 AM45 °FClear.3 mph87%30.21 "Hg10 mi
2:50 AM46 °FClear.2 mph87%30.21 "Hg10 mi
2:20 AM48 °FClear.2 mph82%30.21 "Hg10 mi
1:50 AM48 °FClear.3 mph82%30.21 "Hg10 mi
1:20 AM48 °FClear.6 mph82%30.21 "Hg10 mi
12:50 AM50 °FClear.3 mph82%30.21 "Hg10 mi
12:20 AM50 °FClear.3 mph76%30.21 "Hg10 mi
11:50 PM
Mon, Sep 26
50 °FClear.3 mph82%30.21 "Hg10 mi
11:20 PM52 °FClear.5 mph77%30.21 "Hg10 mi
10:50 PM52 °FClear.6 mph77%30.21 "Hg10 mi
10:20 PM54 °FClear.3 mph72%30.21 "Hg10 mi
9:50 PM54 °FClear.6 mph77%30.21 "Hg10 mi
9:20 PM55 °FClear.6 mph72%30.21 "Hg10 mi
8:50 PM57 °FClear.5 mph67%30.18 "Hg10 mi
8:20 PM59 °FClear.6 mph63%30.18 "Hg10 mi
7:50 PM61 °FPassing clouds.5 mph59%30.18 "HgN/A
7:20 PM64 °FClear.2 mph49%30.18 "Hg10 mi
6:50 PM63 °FSunny.5 mph49%30.18 "Hg10 mi
6:20 PM68 °FSunny.2 mph40%30.15 "Hg10 mi
5:50 PM70 °FSunny.2 mph38%30.15 "Hg10 mi
5:20 PM70 °FPassing clouds.5 mph38%30.15 "HgN/A
4:50 PM70 °FPassing clouds.3 mph38%30.15 "HgN/A
4:20 PM70 °FSunny.2 mph38%30.15 "Hg10 mi
3:50 PM70 °FPassing clouds.5 mph40%30.15 "HgN/A
3:20 PM70 °FSunny.5 mph38%30.15 "Hg10 mi
2:50 PM68 °FSunny.5 mph46%30.18 "Hg10 mi
2:20 PM68 °FSunny.2 mph49%30.18 "Hg10 mi
1:50 PM64 °FPassing clouds.3 mph56%30.18 "HgN/A
1:20 PM63 °FPassing clouds.5 mph59%30.18 "HgN/A
12:50 PM61 °FPassing clouds.5 mph63%30.18 "HgN/A
12:20 PM61 °FPassing clouds.7 mph63%30.18 "HgN/A
11:50 AM63 °FSunny.2 mph56%30.18 "Hg10 mi
11:20 AM61 °FSunny.2 mph59%30.18 "Hg10 mi
10:50 AM59 °FSunny.2 mph63%30.18 "Hg10 mi
10:20 AM55 °FPassing clouds.3 mph63%30.18 "HgN/A
Weather by CustomWeather, © 2016

See weather overviewHow to use our weather pages